DELTA 1 R/B(2), 2643

Orbit data source: Space-Track

DELTA 1 R/B(2), 2643 is space debris in HEO originally from a launch on Wed, 11 Jan 1967 UTC launched from the Air Force Eastern Test Range (AFETR). Debris objects in space refer to the collection of defunct objects orbiting the Earth. Examples of debris include non-operational satellites, rocket bodies, and fragments generated from explosions, collisions, or faulty payload assembly.

Loading next visibility...
Identifier
2643, 1967-001D
Orbit
HEO
Country
Flag of USUS
Related business
Manufacturer
UTC
Mission
Spacecraft
Bus & Motor
FW4, Unknown motor
Mass
34 kg wet, 34 kg dry
Launch date (UTC)
1967-01-11 (59 years ago)
Launch vehicle
Unknown
Launch site
Air Force Eastern Test Range (AFETR)
Object type
Payload
Rocket body
Debris
Shape & HBR
Unknown
Radar Cross Section
Large (>1 m²)

Expand to show TLE details & history
Last TLE update: 1 day ago

TLE from 1 day ago
0 DELTA 1 R/B(2)
1  2643U 67001D   26177.46855575  .00011161  00000-0  27352-2 0  9998
2  2643  25.6775 192.7267 5902280  23.9647 354.9701  4.17500733756726
Epoch: 2026-06-26T11:14Z
TLE epoch observation values (Epoch: 2026-06-26T11:14:43.216Z)
Latitude
-0.00016°
Longitude
109.43955°
Altitude
518.35 km
Speed
9.546 km/s
True Right ascension
12h 50m 51s
True Declination
0° 00' 01"
Sunlit
Object was in daylight at epoch
Visualization orbit readout
Latitude
Unknown
Longitude
Unknown
Altitude
Unknown
Speed
Unknown
Apparent Right ascension
Unknown
Apparent Declination
Unknown
Sunlit
N/A
Visualization observer readout
Local Sidereal Time
23:27:47
Azimuth
Unknown
Elevation
Unknown
Doppler factor
Unknown
Orbital elements
Apogee altitude
19,535.106 km
Perigee altitude
299.221 km
Semi-major axis
16,295.3 km
Eccentricity
0.59023
Inclination
25.6775°
RAAN
192.7267°
Arg. of periapsis
23.9647°
True anomaly
336.32893°
Mean anomaly
354.9701°
Eccentric anomaly
347.85581°
Mean motion
1.0434 °/min
Orbital period
345.03 mins
BSTAR
0.0027352
Loading maneuver chart data...
Computing Atmospheric mass density...

Documentation

Showing up to 5 results
|